"2016-07-11 00:00:00",1798489,4.677,354.2,5.051,0.793,28.28,113.0354,32.7,33.74,8.65,0,111.9,12.92,33.57,316.2
"2016-07-11 00:00:30",1798490,4.143,355.2,3.655,0.868,28.42,113.0138,32.65,33.72,8.57,0,111.9,12.92,33.51,317.2
"2016-07-11 00:01:00",1798491,3.676,356.2,2.079,0.516,28.31,113.0021,32.62,33.69,8.55,0,111.9,12.92,33.48,318.2
"2016-07-11 00:01:30",1798492,3.718,356.8,2.259,0.548,28.24,112.9794,32.56,33.68,8.57,0,111.9,12.92,33.42,318.8
"2016-07-11 00:02:00",1798493,3.116,358.5,2.421,0.388,28.34,112.9693,32.53,33.63,8.55,0,111.9,12.92,33.40,320.5
"2016-07-11 00:02:30",1798494,2.969,359.9,2.306,0.309,28.38,112.9452,32.47,33.61,8.54,0,111.8,12.92,33.34,321.9
"2016-07-11 00:03:00",1798495,2.741,1.753,4.208,0.354,28.23,112.9357,32.45,33.57,8.53,0,111.8,12.92,33.31,323.8
"2016-07-11 00:03:30",1798496,2.982,6.251,3.38,0.523,28.1,112.9147,32.39,33.53,8.56,0,111.8,12.92,33.26,328.3
"2016-07-11 00:04:00",1798497,2.602,7.775,3.968,0.365,28.04,112.9057,32.37,33.52,8.56,0,111.8,12.92,33.23,329.8
"2016-07-11 00:04:30",1798498,2.863,4.523,3.495,0.32,27.97,112.9032,32.36,33.49,8.57,0,111.9,12.92,33.23,326.5
"2016-07-11 00:05:00",1798499,3.311,5.328,3.984,0.419,27.91,112.899,32.35,33.45,8.55,0,111.8,12.92,33.22,327.3
"2016-07-11 00:05:30",1798500,3.509,3.867,3.117,0.417,27.87,112.8887,32.33,33.45,8.57,0,111.8,12.92,33.19,325.9
"2016-07-11 00:06:00",1798501,3.888,355.1,3.321,0.426,27.81,112.8794,32.3,33.43,8.64,0,111.8,12.92,33.17,317.1
"2016-07-11 00:06:30",1798502,4.747,352,2.977,0.287,27.71,112.8783,32.3,33.41,8.84,0,111.8,12.92,33.16,314.0
"2016-07-11 00:07:00",1798503,3.974,353,4.057,0.667,27.71,112.8779,32.3,33.4,8.84,0,111.8,12.92,33.16,315.0
"2016-07-11 00:07:30",1798504,4.572,352.3,2.649,0.524,27.57,112.8745,32.29,33.4,8.7,0,111.8,12.91,33.15,314.3
"2016-07-11 00:08:00",1798505,4.836,352.8,1.882,0.246,27.57,112.8747,32.29,33.37,8.69,0,111.8,12.92,33.15,314.8
"2016-07-11 00:08:30",1798506,4.904,354.5,1.371,0.241,27.61,112.8712,32.28,33.36,8.65,0,111.8,12.91,33.14,316.5
"2016-07-11 00:09:00",1798507,4.828,351.2,1.791,0.145,27.56,112.8728,32.28,33.37,8.65,0,111.8,12.91,33.15,313.2
"2016-07-11 00:09:30",1798508,4.715,352,1.967,0.118,27.56,112.874,32.29,33.35,8.61,0,111.8,12.91,33.15,314.0
"2016-07-11 00:10:00",1798509,3.525,359.1,4.847,1.035,27.75,112.8737,32.29,33.35,8.7,0,111.8,12.91,33.15,321.1
"2016-07-11 00:10:30",1798510,4.355,7.808,4.413,0.453,27.68,112.8731,32.29,33.34,8.82,0,111.8,12.91,33.15,329.8
"2016-07-11 00:11:00",1798511,3.631,2.994,2.401,0.313,27.72,112.8756,32.29,33.35,8.67,0,111.8,12.91,33.16,325.0
"2016-07-11 00:11:30",1798512,3.762,6.186,2.895,0.455,27.73,112.8769,32.29,33.34,8.69,0,111.8,12.91,33.16,328.2
"2016-07-11 00:12:00",1798513,3.908,1.664,6.663,0.533,27.73,112.8769,32.29,33.34,8.96,0,111.8,12.91,33.16,323.7
"2016-07-11 00:12:30",1798514,3.719,359,4.788,0.478,27.72,112.8763,32.29,33.35,9.15,0,111.8,12.92,33.16,321.0
"2016-07-11 00:13:00",1798515,2.527,3.369,7.457,0.561,27.85,112.8841,32.31,33.33,9.29,0,111.8,12.92,33.18,325.4
"2016-07-11 00:13:30",1798516,1.572,7.212,8.21,0.439,27.85,112.8842,32.31,33.36,9.51,0,111.8,12.92,33.18,329.2
"2016-07-11 00:14:00",1798517,2.889,359.4,9.1,1.418,27.79,112.8888,32.33,33.33,9.29,0,111.8,12.92,33.19,321.4
"2016-07-11 00:14:30",1798518,2.731,7.95,8.72,0.917,27.67,112.8908,32.33,33.35,9.16,0,111.8,12.92,33.20,330.0
"2016-07-11 00:15:00",1798519,2.82,6.89,3.136,0.55,27.64,112.9008,32.36,33.36,9.15,0,111.8,12.92,33.22,328.9
"2016-07-11 00:15:30",1798520,3.319,3.285,3.792,0.315,27.62,112.915,32.39,33.36,9.15,0,111.8,12.92,33.26,325.3
"2016-07-11 00:16:00",1798521,3.036,0.088,3.074,0.226,27.7,112.9203,32.41,33.38,8.88,0,111.8,12.92,33.27,322.1
"2016-07-11 00:16:30",1798522,3.477,357.4,1.944,0.295,27.73,112.92,32.41,33.39,8.88,0,111.8,12.92,33.27,319.4
"2016-07-11 00:17:00",1798523,4.308,355.4,5.306,0.915,27.66,112.9236,32.42,33.39,9.05,0,111.8,12.92,33.28,317.4
"2016-07-11 00:17:30",1798524,4.026,355.1,3.684,0.654,27.73,112.9307,32.43,33.4,9.05,0,111.8,12.92,33.30,317.1
"2016-07-11 00:18:00",1798525,4.122,353.9,4.278,0.752,27.82,112.9325,32.44,33.42,9.08,0,111.8,12.92,33.30,315.9
"2016-07-11 00:18:30",1798526,4.059,352.8,2.786,0.54,27.78,112.9339,32.44,33.42,9.18,0,111.8,12.92,33.31,314.8
"2016-07-11 00:19:00",1798527,2.172,0.27,11.36,1.365,28.01,112.939,32.45,33.42,9.17,0,111.8,12.92,33.32,322.3
"2016-07-11 00:19:30",1798528,1.874,4.526,6.004,0.559,27.76,112.9431,32.47,33.44,9.03,0,111.8,12.92,33.33,326.5
"2016-07-11 00:20:00",1798529,2.615,3.279,3.606,0.419,27.65,112.951,32.49,33.44,8.87,0,111.8,12.92,33.35,325.3
"2016-07-11 00:20:30",1798530,3.216,3.968,5.319,0.559,27.58,112.9547,32.5,33.45,8.89,0,111.8,12.92,33.36,326.0
"2016-07-11 00:21:00",1798531,3.801,10.73,5.597,0.693,27.56,112.9584,32.5,33.46,8.76,0,111.8,12.92,33.37,332.7
"2016-07-11 00:21:30",1798532,2.593,2.389,6.56,0.485,27.74,112.9612,32.51,33.47,8.84,0,111.8,12.92,33.38,324.4
"2016-07-11 00:22:00",1798533,2.361,360,4.315,0.498,27.69,112.9621,32.51,33.47,8.96,0,111.8,12.92,33.38,322.0
"2016-07-11 00:22:30",1798534,3.92,354.6,6.125,0.668,27.52,112.9634,32.52,33.48,8.86,0,111.8,12.92,33.38,316.6
"2016-07-11 00:23:00",1798535,4.358,351.3,3.884,0.365,27.64,112.9627,32.52,33.49,8.66,0,111.8,12.92,33.38,313.3
"2016-07-11 00:23:30",1798536,4.445,347,1.943,0.173,27.66,112.9658,32.52,33.49,8.7,0,111.8,12.92,33.39,309.0
"2016-07-11 00:24:00",1798537,3.683,351.1,2.816,0.322,27.62,112.9724,32.54,33.51,8.71,0,111.8,12.92,33.41,313.1
"2016-07-11 00:24:30",1798538,3.948,351.4,1.98,0.359,27.57,112.9749,32.55,33.49,8.48,0,111.8,12.92,33.41,313.4
"2016-07-11 00:25:00",1798539,3.925,355.9,5.072,0.58,27.65,112.9778,32.55,33.49,8.59,0,111.8,12.92,33.42,317.9
"2016-07-11 00:25:30",1798540,3.754,356.6,3.604,0.216,27.69,112.9753,32.55,33.52,8.69,0,111.8,12.92,33.41,318.6
"2016-07-11 00:26:00",1798541,3.736,352.9,3.03,0.413,27.68,112.9726,32.54,33.51,8.71,0,111.8,12.91,33.41,314.9
"2016-07-11 00:26:30",1798542,3.358,359,3.605,0.46,27.8,112.9714,32.54,33.51,8.95,0,111.8,12.91,33.40,321.0
"2016-07-11 00:27:00",1798543,2.579,13,4.796,1.066,28,112.965,32.52,33.52,8.91,0,111.8,12.92,33.39,335.0
"2016-07-11 00:27:30",1798544,1.832,4.985,6.911,0.502,28.15,112.9657,32.52,33.52,8.94,0,111.8,12.91,33.39,327.0
"2016-07-11 00:28:00",1798545,3.475,21.35,2.366,0.381,27.82,112.9654,32.52,33.51,8.75,0,111.8,12.91,33.39,343.4
"2016-07-11 00:28:30",1798546,3.124,21.48,2.13,0.522,27.83,112.9661,32.52,33.51,8.5,0,111.8,12.91,33.39,343.5
"2016-07-11 00:29:00",1798547,2.551,14.44,3.549,0.598,27.87,112.9661,32.52,33.51,8.63,0,111.8,12.91,33.39,336.4
"2016-07-11 00:29:30",1798548,2.881,7.83,5.761,0.573,27.85,112.9684,32.53,33.51,8.58,0,111.8,12.91,33.40,329.8
"2016-07-11 00:30:00",1798549,2.745,4.179,3.25,0.339,27.82,112.9726,32.54,33.52,8.51,0,111.8,12.91,33.41,326.2
"2016-07-11 00:30:30",1798550,3.061,355.7,2.994,0.525,27.84,112.9739,32.54,33.53,8.52,0,111.8,12.92,33.41,317.7
"2016-07-11 00:31:00",1798551,3.035,0.281,6.581,0.447,27.79,112.9762,32.55,33.51,8.91,0,111.8,12.92,33.42,322.3
"2016-07-11 00:31:30",1798552,3.01,1.05,5.537,0.492,27.83,112.9779,32.55,33.53,8.78,0,111.8,12.92,33.42,323.0
"2016-07-11 00:32:00",1798553,3.191,0.445,3.82,0.393,27.81,112.9776,32.55,33.54,8.72,0,111.8,12.92,33.42,322.4
"2016-07-11 00:32:30",1798554,3.317,6.759,1.426,0.315,27.76,112.9768,32.55,33.53,8.63,0,111.8,12.92,33.42,328.8
"2016-07-11 00:33:00",1798555,3.171,1.67,3.645,0.442,27.84,112.9762,32.55,33.54,8.85,0,111.8,12.92,33.42,323.7
"2016-07-11 00:33:30",1798556,3.533,4.719,4.876,0.685,27.78,112.9743,32.55,33.54,9.11,0,111.8,12.92,33.41,326.7
"2016-07-11 00:34:00",1798557,4.637,353.2,2.218,0.433,27.79,112.9712,32.54,33.54,9.2,0,111.8,12.92,33.40,315.2
"2016-07-11 00:34:30",1798558,3.645,7.008,6.344,0.563,27.77,112.9678,32.53,33.52,9.25,0,111.8,12.92,33.39,329.0
"2016-07-11 00:35:00",1798559,3.95,6.398,4.658,0.248,27.73,112.9661,32.52,33.54,8.82,0,111.8,12.92,33.39,328.4
"2016-07-11 00:35:30",1798560,3.78,3.22,6.113,0.581,27.81,112.9653,32.52,33.55,9.03,0,111.8,12.92,33.39,325.2
"2016-07-11 00:36:00",1798561,3.466,1.914,4.693,0.948,27.93,112.9653,32.52,33.53,9.09,0,111.8,12.92,33.39,323.9
"2016-07-11 00:36:30",1798562,2.554,3.362,6.004,0.867,28.01,112.9653,32.52,33.53,9.14,0,111.8,12.92,33.39,325.4
"2016-07-11 00:37:00",1798563,3.81,356.2,5.911,1.296,27.78,112.9645,32.52,33.53,9.14,0,111.8,12.92,33.39,318.2
"2016-07-11 00:37:30",1798564,4.158,352.5,4.237,0.655,27.77,112.9636,32.52,33.52,9.17,0,111.8,12.92,33.38,314.5
"2016-07-11 00:38:00",1798565,3.302,355.1,4.992,0.687,27.97,112.9528,32.49,33.51,9.15,0,111.8,12.92,33.36,317.1
"2016-07-11 00:38:30",1798566,3.437,355.6,8.92,0.915,27.98,112.9466,32.47,33.5,9.18,0,111.8,12.92,33.34,317.6
"2016-07-11 00:39:00",1798567,1.706,2.816,8.46,0.844,28.17,112.9436,32.47,33.49,9.26,0,111.8,12.92,33.33,324.8
"2016-07-11 00:39:30",1798568,3.492,356,5.462,1.412,27.86,112.9362,32.45,33.47,9.15,0,111.8,12.92,33.31,318.0
"2016-07-11 00:40:00",1798569,3.944,354.3,3.842,0.721,27.91,112.9334,32.44,33.47,9.02,0,111.8,12.92,33.31,316.3
"2016-07-11 00:40:30",1798570,2.645,359.9,7.687,1.346,28.1,112.9322,32.44,33.46,9.23,0,111.8,12.91,33.30,321.9
"2016-07-11 00:41:00",1798571,1.648,5.387,9.44,0.665,28.05,112.9317,32.44,33.46,9.2,0,111.8,12.92,33.30,327.4
"2016-07-11 00:41:30",1798572,2.438,1.289,7.59,0.857,27.93,112.9317,32.44,33.46,9.15,0,111.8,12.92,33.30,323.3
"2016-07-11 00:42:00",1798573,4.092,350.5,5.303,0.643,27.73,112.9326,32.44,33.44,9.23,0,111.8,12.92,33.30,312.5
"2016-07-11 00:42:30",1798574,3.363,355,7.358,0.842,27.94,112.9355,32.45,33.43,9.34,0,111.8,12.92,33.31,317.0
"2016-07-11 00:43:00",1798575,2.755,358.5,9.12,1.388,28.08,112.9342,32.44,33.45,9.57,0,111.8,12.92,33.31,320.5
"2016-07-11 00:43:30",1798576,4.194,352.6,5.232,0.895,27.91,112.9345,32.44,33.44,9.7,0,111.8,12.91,33.31,314.6
"2016-07-11 00:44:00",1798577,1.948,4.997,11.98,1.055,28.17,112.9348,32.44,33.43,9.76,0,111.8,12.92,33.31,327.0
"2016-07-11 00:44:30",1798578,1.826,4.03,9.74,1.071,28.03,112.9339,32.44,33.42,9.82,0,111.8,12.92,33.31,326.0
"2016-07-11 00:45:00",1798579,4.52,354.4,4.66,0.979,27.93,112.9368,32.45,33.43,9.96,0,111.8,12.92,33.31,316.4
"2016-07-11 00:45:30",1798580,3.133,358.8,4.435,0.736,28.12,112.9338,32.44,33.42,10.03,0,111.8,12.91,33.31,320.8
"2016-07-11 00:46:00",1798581,3.605,356.1,2.918,0.56,27.88,112.921,32.41,33.41,9.52,0,111.8,12.91,33.27,318.1
"2016-07-11 00:46:30",1798582,3.936,354.9,2.388,0.557,27.83,112.9104,32.38,33.41,9.35,0,111.8,12.92,33.25,316.9
"2016-07-11 00:47:00",1798583,3.562,356.9,4.313,0.763,27.84,112.9047,32.37,33.4,9.18,0,111.8,12.92,33.23,318.9
"2016-07-11 00:47:30",1798584,3.027,358.3,3.358,0.534,27.88,112.9066,32.37,33.38,9.12,0,111.8,12.92,33.24,320.3
"2016-07-11 00:48:00",1798585,2.323,6.926,6.446,0.549,27.83,112.906,32.37,33.37,9.17,0,111.8,12.92,33.23,328.9
"2016-07-11 00:48:30",1798586,1.601,9.1,8.79,0.529,27.89,112.899,32.35,33.37,9.72,0,111.8,12.92,33.22,331.1
"2016-07-11 00:49:00",1798587,2.962,2.278,4.064,0.538,27.8,112.8897,32.33,33.35,9.65,0,111.8,12.92,33.19,324.3
"2016-07-11 00:49:30",1798588,3.254,358.5,3.222,0.437,27.91,112.8815,32.31,33.33,9.61,0,111.8,12.92,33.17,320.5
"2016-07-11 00:50:00",1798589,3.144,0.33,7.75,0.629,27.92,112.8783,32.3,33.34,9.64,0,111.8,12.92,33.16,322.3
"2016-07-11 00:50:30",1798590,2.578,14.88,5.953,0.388,27.69,112.873,32.28,33.32,9.28,0,111.8,12.92,33.15,336.9
"2016-07-11 00:51:00",1798591,1.974,15.51,3.085,0.326,27.76,112.8736,32.29,33.33,9.1,0,111.8,12.93,33.15,337.5
"2016-07-11 00:51:30",1798592,2.137,10.39,7.632,0.581,27.78,112.8736,32.29,33.31,9.24,0,111.8,12.92,33.15,332.4
"2016-07-11 00:52:00",1798593,2.678,18.94,3.926,0.587,27.69,112.8736,32.29,33.3,9.17,0,111.8,12.92,33.15,340.9
"2016-07-11 00:52:30",1798594,3.663,21.77,1.823,0.384,27.63,112.8742,32.29,33.29,9.08,0,111.8,12.92,33.15,343.8
"2016-07-11 00:53:00",1798595,3.154,20.59,2.542,0.447,27.7,112.8775,32.3,33.3,9.06,0,111.8,12.92,33.16,342.6
"2016-07-11 00:53:30",1798596,3.859,22.22,2.544,0.478,27.66,112.8818,32.31,33.3,8.98,0,111.8,12.92,33.17,344.2
"2016-07-11 00:54:00",1798597,3.871,23.5,1.444,0.19,27.68,112.8849,32.32,33.31,9.2,0,111.8,12.92,33.18,345.5
"2016-07-11 00:54:30",1798598,3.028,19.31,1.941,0.417,27.8,112.8933,32.34,33.33,9.13,0,111.8,12.93,33.20,341.3
"2016-07-11 00:55:00",1798599,3.252,21.52,2.544,0.462,27.73,112.905,32.37,33.32,8.94,0,111.8,12.93,33.23,343.5
"2016-07-11 00:55:30",1798600,3.643,23.71,1.288,0.214,27.66,112.9076,32.37,33.34,9.11,0,111.8,12.93,33.24,345.7
"2016-07-11 00:56:00",1798601,3.772,24.17,1.111,0.172,27.68,112.9076,32.37,33.35,9.27,0,111.8,12.93,33.24,346.2
"2016-07-11 00:56:30",1798602,3.434,22.79,2.146,0.377,27.75,112.9115,32.38,33.36,9.28,0,111.8,12.93,33.25,344.8
"2016-07-11 00:57:00",1798603,3.819,24.42,2.104,0.449,27.73,112.9165,32.4,33.37,9.23,0,111.8,12.92,33.26,346.4
"2016-07-11 00:57:30",1798604,3.984,22.94,2.038,0.231,27.73,112.9319,32.44,33.38,9.09,0,111.8,12.93,33.30,344.9
"2016-07-11 00:58:00",1798605,3.757,21.79,1.424,0.472,27.74,112.9409,32.46,33.41,9.12,0,111.8,12.93,33.32,343.8
"2016-07-11 00:58:30",1798606,2.723,19.73,3.9,0.434,27.84,112.9412,32.46,33.43,9.13,0,111.8,12.93,33.33,341.7
"2016-07-11 00:59:00",1798607,2.217,18.47,2.181,0.326,27.87,112.9429,32.46,33.45,9.25,0,111.8,12.92,33.33,340.5
"2016-07-11 00:59:30",1798608,2.487,19.93,3.016,0.409,27.75,112.9485,32.48,33.45,9.41,0,111.8,12.92,33.34,341.9
"2016-07-11 01:00:00",1798609,2.195,20.89,3.091,0.355,27.74,112.9563,32.5,33.47,9.49,0,111.8,12.92,33.36,342.9
"2016-07-11 01:00:30",1798610,3.058,25.68,2.313,0.26,27.66,112.9728,32.54,33.49,9.5,0,111.8,12.92,33.41,347.7
"2016-07-11 01:01:00",1798611,2.811,25.05,3.424,0.422,27.69,112.9745,32.55,33.5,9.41,0,111.8,12.92,33.41,347.0
"2016-07-11 01:01:30",1798612,3.49,31.3,1.568,0.281,27.68,112.9748,32.55,33.51,9.42,0,111.8,12.92,33.41,353.3
"2016-07-11 01:02:00",1798613,3.386,28.56,2.527,0.545,27.72,112.9787,32.56,33.54,9.38,0,111.8,12.92,33.42,350.6
"2016-07-11 01:02:30",1798614,3.67,24.38,2.25,0.301,27.79,112.9891,32.58,33.55,9.32,0,111.8,12.92,33.45,346.4
"2016-07-11 01:03:00",1798615,3.236,28.66,2.016,0.239,27.77,112.9938,32.6,33.56,9.21,0,111.8,12.92,33.46,350.7
"2016-07-11 01:03:30",1798616,3.826,22.92,4.118,0.5,27.78,113.0036,32.62,33.56,9.2,0,111.8,12.92,33.49,344.9
"2016-07-11 01:04:00",1798617,3.47,21.76,2.825,0.411,27.84,113.0067,32.63,33.59,9.17,0,111.8,12.92,33.49,343.8
"2016-07-11 01:04:30",1798618,3.784,25.04,1.372,0.15,27.79,113.0084,32.63,33.59,9.16,0,111.8,12.92,33.50,347.0
"2016-07-11 01:05:00",1798619,3.598,22.31,2.579,0.385,27.84,113.0084,32.63,33.62,9.24,0,111.8,12.92,33.50,344.3
"2016-07-11 01:05:30",1798620,3.819,20.48,2.202,0.493,27.86,113.0084,32.63,33.63,9.26,0,111.8,12.92,33.50,342.5
"2016-07-11 01:06:00",1798621,3.777,22.13,1.932,0.377,27.88,113.0092,32.64,33.63,9.24,0,111.8,12.92,33.50,344.1
"2016-07-11 01:06:30",1798622,3.903,22.19,1.808,0.218,27.87,113.0106,32.64,33.63,9.2,0,111.8,12.92,33.50,344.2
"2016-07-11 01:07:00",1798623,3.792,22.03,1.771,0.381,27.91,113.0148,32.65,33.64,9.15,0,111.8,12.93,33.52,344.0
"2016-07-11 01:07:30",1798624,4.099,21.01,2.458,0.577,27.94,113.016,32.65,33.65,9.13,0,111.8,12.93,33.52,343.0
"2016-07-11 01:08:00",1798625,4.403,22.76,3.954,0.3,27.9,113.0171,32.66,33.67,9.09,0,111.8,12.92,33.52,344.8
"2016-07-11 01:08:30",1798626,4.007,24.79,2.599,0.336,27.91,113.0171,32.66,33.67,9.09,0,111.8,12.93,33.52,346.8
"2016-07-11 01:09:00",1798627,3.477,21.69,2.277,0.456,27.94,113.0174,32.66,33.67,9.06,0,111.8,12.93,33.52,343.7
"2016-07-11 01:09:30",1798628,3.486,21.25,4.641,0.987,28,113.018,32.66,33.66,9.18,0,111.8,12.93,33.52,343.2
"2016-07-11 01:10:00",1798629,3.876,23.41,1.006,0.261,27.93,113.0194,32.66,33.68,9.19,0,111.8,12.93,33.53,345.4
"2016-07-11 01:10:30",1798630,3.764,22.26,1.551,0.258,27.95,113.0191,32.66,33.68,9.1,0,111.8,12.93,33.53,344.3
"2016-07-11 01:11:00",1798631,3.91,22.87,1.289,0.199,27.94,113.0196,32.66,33.68,9.11,0,111.8,12.93,33.53,344.9
"2016-07-11 01:11:30",1798632,3.736,22.33,1.706,0.217,27.96,113.0207,32.67,33.7,9.17,0,111.8,12.93,33.53,344.3
"2016-07-11 01:12:00",1798633,3.36,21.41,2.378,0.407,27.95,113.0225,32.67,33.69,9.18,0,111.8,12.93,33.54,343.4
"2016-07-11 01:12:30",1798634,3.373,19.32,2.688,0.496,27.97,113.0251,32.68,33.7,9.19,0,111.8,12.93,33.54,341.3
"2016-07-11 01:13:00",1798635,3.388,19.89,2.562,0.614,27.96,113.0261,32.68,33.7,9.17,0,111.8,12.93,33.54,341.9
"2016-07-11 01:13:30",1798636,3.637,22.49,1.831,0.267,27.97,113.03,32.69,33.7,9.13,0,111.8,12.93,33.55,344.5
"2016-07-11 01:14:00",1798637,3.248,19.98,4.182,0.774,27.96,113.0319,32.69,33.7,9.13,0,111.8,12.93,33.56,342.0
"2016-07-11 01:14:30",1798638,2.221,7.659,5.904,0.48,28.04,113.033,32.7,33.71,9.36,0,111.8,12.93,33.56,329.7
"2016-07-11 01:15:00",1798639,3.333,359.7,4.258,0.743,28.02,113.03,32.69,33.71,9.31,0,111.8,12.93,33.55,321.7
"2016-07-11 01:15:30",1798640,3.076,7.043,4.04,0.736,28.02,113.0331,32.7,33.7,9.23,0,111.8,12.93,33.56,329.0
"2016-07-11 01:16:00",1798641,2.814,359.2,2.648,0.3,28.07,113.0301,32.69,33.7,9.14,0,111.8,12.93,33.56,321.2
"2016-07-11 01:16:30",1798642,2.802,358.1,1.833,0.261,28.06,113.0168,32.66,33.68,9.09,0,111.8,12.93,33.52,320.1
"2016-07-11 01:17:00",1798643,3.389,358,5.867,0.926,28.01,112.9985,32.61,33.68,9.08,0,111.8,12.93,33.47,320.0
"2016-07-11 01:17:30",1798644,2.86,359.9,4.606,0.369,28.08,112.9977,32.61,33.65,9.12,0,111.8,12.92,33.47,321.9
"2016-07-11 01:18:00",1798645,4.204,351,4.642,0.757,27.9,112.9783,32.56,33.64,9.15,0,111.8,12.92,33.42,313.0
"2016-07-11 01:18:30",1798646,4.557,349.1,1.406,0.22,27.87,112.9671,32.53,33.62,9.19,0,111.8,12.92,33.39,311.1
"2016-07-11 01:19:00",1798647,4.397,353.3,3.067,0.45,28.03,112.9684,32.53,33.6,9.11,0,111.8,12.92,33.40,315.3
"2016-07-11 01:19:30",1798648,4.901,349.1,1.762,0.202,28,112.9502,32.48,33.56,9.08,0,111.8,12.92,33.35,311.1
"2016-07-11 01:20:00",1798649,4.682,348,1.45,0.101,27.99,112.9376,32.45,33.52,9.12,0,111.8,12.93,33.32,310.0
"2016-07-11 01:20:30",1798650,4.827,349.1,1.17,0.101,27.98,112.9354,32.45,33.51,9.16,0,111.8,12.92,33.31,311.1
"2016-07-11 01:21:00",1798651,4.804,345.2,1.887,0.15,27.98,112.9304,32.43,33.49,9.24,0,111.8,12.93,33.30,307.2
"2016-07-11 01:21:30",1798652,4.951,345.1,1.34,0.109,27.95,112.9113,32.38,33.47,9.23,0,111.8,12.93,33.25,307.1
"2016-07-11 01:22:00",1798653,4.654,345.6,1.506,0.228,28,112.9029,32.36,33.45,9.2,0,111.8,12.93,33.23,307.6
"2016-07-11 01:22:30",1798654,4.946,347.7,1.489,0.09,28,112.9012,32.36,33.41,9.18,0,111.8,12.93,33.22,309.7
"2016-07-11 01:23:00",1798655,4.926,349.9,1.143,0.185,28.06,112.8858,32.32,33.39,9.19,0,111.8,12.93,33.18,311.9
"2016-07-11 01:23:30",1798656,5.103,347.6,0.941,0.293,28.05,112.8741,32.29,33.37,9.19,0,111.8,12.93,33.15,309.6
"2016-07-11 01:24:00",1798657,5.31,348.2,1.043,0.096,28.06,112.8688,32.27,33.35,9.33,0,111.8,12.93,33.14,310.2
"2016-07-11 01:24:30",1798658,5.537,348.1,1.38,0.077,28.08,112.8657,32.27,33.32,9.5,0,111.8,12.93,33.13,310.1
"2016-07-11 01:25:00",1798659,5.699,348.7,1.293,0.106,28.1,112.8455,32.21,33.3,9.61,0,111.8,12.93,33.08,310.7
"2016-07-11 01:25:30",1798660,5.634,349.9,1.246,0.174,28.17,112.8371,32.19,33.27,9.37,0,111.7,12.93,33.06,311.9
"2016-07-11 01:26:00",1798661,5.711,347.9,0.837,0.079,28.1,112.8352,32.19,33.24,9.24,0,111.8,12.93,33.05,309.9
"2016-07-11 01:26:30",1798662,5.476,349.9,1.088,0.161,28.18,112.8254,32.16,33.22,9.24,0,111.7,12.93,33.03,311.9
"2016-07-11 01:27:00",1798663,5.334,348.8,0.692,0.084,28.22,112.8052,32.11,33.19,9.26,0,111.7,12.93,32.97,310.8
"2016-07-11 01:27:30",1798664,5.208,348.2,0.703,0.077,28.21,112.8015,32.1,33.16,9.25,0,111.7,12.93,32.96,310.2
"2016-07-11 01:28:00",1798665,5.336,347.7,0.629,0.06,28.17,112.794,32.08,33.14,9.28,0,111.7,12.94,32.95,309.7
"2016-07-11 01:28:30",1798666,5.142,348.8,0.658,0.126,28.11,112.7749,32.03,33.11,9.46,0,111.7,12.94,32.90,310.8
"2016-07-11 01:29:00",1798667,5.209,347.3,1.164,0.113,28.09,112.7689,32.02,33.1,9.55,0,111.7,12.94,32.88,309.3
"2016-07-11 01:29:30",1798668,5.28,345,1.084,0.116,28.16,112.7704,32.02,33.09,9.42,0,111.7,12.94,32.88,307.0
"2016-07-11 01:30:00",1798669,5.294,343.9,0.836,0.081,28.16,112.7624,32,33.05,9.33,0,111.7,12.93,32.86,305.9
"2016-07-11 01:30:30",1798670,5.407,344.1,0.773,0.043,28.17,112.7454,31.96,33.03,9.29,0,111.7,12.94,32.82,306.1
"2016-07-11 01:31:00",1798671,5.535,343.6,0.83,0.055,28.12,112.7376,31.94,33.02,9.25,0,111.7,12.94,32.80,305.6
"2016-07-11 01:31:30",1798672,5.472,341.4,1.373,0.059,28.11,112.7381,31.94,32.99,9.29,0,111.7,12.94,32.80,303.4
"2016-07-11 01:32:00",1798673,5.198,338.7,1.56,0.114,28.11,112.7407,31.94,32.98,9.33,0,111.7,12.94,32.81,300.7
"2016-07-11 01:32:30",1798674,4.904,337.8,3.215,0.345,28.02,112.7329,31.92,32.95,9.31,0,111.7,12.94,32.79,299.8
"2016-07-11 01:33:00",1798675,5.418,329.7,3.817,0.858,27.87,112.7134,31.87,32.94,9.72,0,111.7,12.94,32.74,291.7
"2016-07-11 01:33:30",1798676,6.273,331.7,1.629,0.12,27.85,112.7092,31.86,32.92,9.28,0,111.7,12.93,32.73,293.7
"2016-07-11 01:34:00",1798677,6.246,329.7,1.197,0.165,27.87,112.7093,31.86,32.9,9.2,0,111.7,12.93,32.73,291.7
"2016-07-11 01:34:30",1798678,6.696,333.9,1.369,0.175,27.81,112.6997,31.84,32.88,9.34,0,111.7,12.93,32.70,295.9
"2016-07-11 01:35:00",1798679,6.725,335.1,2.41,0.255,27.91,112.6858,31.8,32.86,9.58,0,111.7,12.93,32.67,297.1
"2016-07-11 01:35:30",1798680,6.561,337.2,1.377,0.142,27.92,112.6813,31.79,32.86,9.65,0,111.7,12.93,32.65,299.2
"2016-07-11 01:36:00",1798681,6.598,342.1,1.518,0.203,27.97,112.6765,31.78,32.84,9.78,0,111.7,12.93,32.64,304.1
"2016-07-11 01:36:30",1798682,6.706,343.6,1.422,0.236,28.09,112.6765,31.78,32.83,9.82,0,111.7,12.93,32.64,305.6
"2016-07-11 01:37:00",1798683,6.672,341.8,2.966,0.17,28.06,112.6608,31.74,32.8,9.53,0,111.7,12.93,32.60,303.8
"2016-07-11 01:37:30",1798684,6.531,337.6,2.459,0.135,28,112.6474,31.7,32.79,9.46,0,111.7,12.93,32.57,299.6
"2016-07-11 01:38:00",1798685,6.386,336,3.113,0.365,27.98,112.6426,31.69,32.76,9.32,0,111.7,12.93,32.55,298.0
"2016-07-11 01:38:30",1798686,6.338,339.6,9.14,0.297,28.02,112.6345,31.67,32.74,9.18,0,111.7,12.93,32.53,301.6
"2016-07-11 01:39:00",1798687,7.653,335.6,5.127,0.921,28.03,112.6149,31.62,32.73,9.12,0,111.7,12.94,32.48,297.6
"2016-07-11 01:39:30",1798688,8.12,338.4,1.884,0.25,27.97,112.6093,31.61,32.69,9.24,0,111.7,12.94,32.47,300.4
"2016-07-11 01:40:00",1798689,7.605,338.2,1.581,0.183,28.17,112.604,31.59,32.68,9.28,0,111.7,12.94,32.45,300.2
"2016-07-11 01:40:30",1798690,7.343,336.6,1.223,0.195,28.15,112.5835,31.54,32.64,9.23,0,111.7,12.94,32.40,298.6
"2016-07-11 01:41:00",1798691,7.17,340.2,1.071,0.138,28.22,112.5759,31.52,32.63,9.36,0,111.7,12.94,32.38,302.2
"2016-07-11 01:41:30",1798692,7.01,339.8,0.523,0.113,28.06,112.5754,31.52,32.6,9.42,0,111.7,12.94,32.38,301.8
"2016-07-11 01:42:00",1798693,7.105,340.2,1.371,0.305,28.09,112.5614,31.48,32.57,9.48,0,111.7,12.94,32.34,302.2
"2016-07-11 01:42:30",1798694,7.345,341.1,2.183,0.348,28.09,112.5445,31.44,32.54,9.57,0,111.7,12.94,32.30,303.1
"2016-07-11 01:43:00",1798695,6.24,343.5,3.885,0.536,28.14,112.542,31.43,32.53,9.56,0,111.7,12.94,32.29,305.5
"2016-07-11 01:43:30",1798696,6.338,347.6,3.096,0.322,28.18,112.5328,31.41,32.51,9.48,0,111.7,12.94,32.27,309.6
"2016-07-11 01:44:00",1798697,6.026,346.4,2.681,0.308,28.25,112.5138,31.36,32.48,9.46,0,111.7,12.94,32.22,308.4
"2016-07-11 01:44:30",1798698,5.642,346.1,1.249,0.228,28.21,112.51,31.35,32.46,9.43,0,111.7,12.94,32.21,308.1
"2016-07-11 01:45:00",1798699,5.814,342.9,2.567,0.187,28.11,112.5111,31.35,32.43,9.52,0,111.7,12.94,32.21,304.9
"2016-07-11 01:45:30",1798700,6,339.6,2.697,0.2,28.1,112.5096,31.35,32.42,9.64,0,111.7,12.94,32.21,301.6
"2016-07-11 01:46:00",1798701,6.116,344.6,1.821,0.334,28.14,112.4988,31.32,32.39,9.65,0,111.7,12.94,32.18,306.6
"2016-07-11 01:46:30",1798702,6.747,341.8,2.983,0.215,28.03,112.488,31.29,32.38,9.78,0,111.7,12.94,32.15,303.8
"2016-07-11 01:47:00",1798703,7.252,340.5,3.808,0.491,27.96,112.4896,31.3,32.36,9.71,0,111.7,12.95,32.16,302.5
"2016-07-11 01:47:30",1798704,7.516,337.2,2.582,0.406,27.94,112.4912,31.3,32.35,9.4,0,111.7,12.95,32.16,299.2